Main page
METAR-TAF:

METAR-TAF

Airports :

Padua, Italy

Padua Airport

latitude: 45-23-45N, longitude: 11-50-53E, elevation: 13 m

Current weather observation

The report was made 16 hours and 46 minutes ago, at 06:00 UTC
Wind 4 kt from the North/Northeast, varying between North and East/Northeast
Temperature 17°C
Humidity 82%
Pressure 1012 hPa
Visibility 10 km or more
no clouds below 1500 m and no cumulonimbus

METAR: LIPU 260600Z 03004KT 350V070 CAVOK 17/14 Q1012

Time: 00:46 (22:46 UTC)


TAF: missing

Weather observations and forecasts of more than 4000 airports (METAR and TAF reports).

The available stations are represented by yellow and red dots on the map.

Hover mouse over dot to see the name of the station.

Then click to see weather observations and forecasts.

To change the map : click on the green buttons with a black cross to zoom in, on the green button with a dash to zoom out, or on the green arrows for adjacent maps.


METAR-TAF: